Showing default

FIRESAT0, 63256

Orbit data source: Space-Track

FIRESAT0, 63256 is a payload satellite owned by Muon Space (US) in SSO that was launched on Sat, 15 Mar 2025 UTC via an FALCON 9 launch vehicle from the Air Force Western Test Range (AFWTR). Payload-class satellites include a variety of spacecraft equipped with specific instruments for various scientific and technological missions. These include communications satellites like Starlink; space stations such as the ISS; scientific satellites like the Hubble; Earth observation satellites from companies like Planet Labs, Umbra, and HawkEye 360; GPS; miniature CubeSats for education and research; and military/defense satellites.

Loading next visibility...
Identifier
63256, 2025-052AY
Orbit
SSO
Country
Flag of USUS
Related business
Manufacturer
Muon Space
Mission
Operational Commercial Imaging
Bus & Motor
MUON, Unknown motor
Mass
135 kg wet, 132 kg dry
Launch date (UTC)
2025-03-15 (2 years ago)
Launch vehicle
FALCON 9
Launch site
Air Force Western Test Range (AFWTR)
Object type
Payload
Rocket body
Debris
Shape & HBR
Box + 2 Pan, 2.5 m
Radar Cross Section
2.173 m², Large (>1 m²)

Expand to show TLE details & history
Last TLE update: 23 hours ago

TLE from 23 hours ago
0 FIRESAT0
1 63256U 25052AY  26264.98020484  .00000823  00000-0  84314-4 0  9998
2 63256  97.6816 153.9700 0001134  58.3459 301.7871 14.93094083 83031
Epoch: 2026-09-21T23:31Z
TLE epoch observation values (Epoch: 2026-09-21T23:31:29.698Z)
Latitude
-0.00003°
Longitude
160.24401°
Altitude
590.924 km
Speed
7.565 km/s
True Right ascension
10h 15m 52s
True Declination
0° 00' 00"
Sunlit
Object was in daylight at epoch
Visualization orbit readout
Latitude
Unknown
Longitude
Unknown
Altitude
Unknown
Speed
Unknown
Apparent Right ascension
Unknown
Apparent Declination
Unknown
Sunlit
N/A
Visualization observer readout
Local Sidereal Time
15:37:33
Azimuth
Unknown
Elevation
Unknown
Doppler factor
Unknown
Orbital elements
Apogee altitude
586.098 km
Perigee altitude
584.519 km
Semi-major axis
6,963.446 km
Eccentricity
0.00011
Inclination
97.6816°
RAAN
153.97°
Arg. of periapsis
58.3459°
True anomaly
301.77605°
Mean anomaly
301.7871°
Eccentric anomaly
301.78158°
Mean motion
3.73514 °/min
Orbital period
96.38 mins
BSTAR
0.000084314
Loading maneuver chart data...
Computing Atmospheric mass density...
Loading historical data...
Loading historical data...
Loading historical data...
Loading historical data...
Loading historical data...
Loading historical data...
Loading historical data...

Documentation

Showing up to 5 results
|